KD8ZLZ Weather Reports


Display with metric or nautical units.
time (UTC)temp
F
wind
direction
speed
MPH
gust
MPH
rain 1hr
in
rain 24hr
in
rain mn
in
humidity
%
barometer
mb
20260510225035 60 298 3.0 6.0 0.00 0.00 0.00 32 1019.5
20260510224555 60 273 5.0 8.0 0.00 0.00 0.00 31 1019.5
20260510224035 61 298 6.0 10.0 0.00 0.00 0.00 30 1019.5
20260510223536 61 292 6.0 11.0 0.00 0.00 0.00 30 1019.6
20260510223036 61 267 5.0 10.0 0.00 0.00 0.00 30 1019.2
20260510222535 63 293 6.0 10.0 0.00 0.00 0.00 29 1019.3
20260510222035 64 259 5.0 9.0 0.00 0.00 0.00 29 1019.3
20260510221535 62 266 6.0 10.0 0.00 0.00 0.00 29 1019.2
20260510221035 61 297 5.0 9.0 0.00 0.00 0.00 31 1019.2
20260510220535 62 304 5.0 11.0 0.00 0.00 0.00 30 1019.3
20260510220035 61 313 4.0 10.0 0.00 0.00 0.00 31 1019.2
20260510215535 62 288 3.0 7.0 0.00 0.00 0.00 31 1019.3
20260510215038 61 285 4.0 7.0 0.00 0.00 0.00 31 1018.9
20260510214536 61 266 4.0 9.0 0.00 0.00 0.00 31 1018.9
20260510214035 61 278 4.0 8.0 0.00 0.00 0.00 30 1018.9
20260510213535 61 259 4.0 7.0 0.00 0.00 0.00 29 1019.0
20260510213036 61 284 5.0 10.0 0.00 0.00 0.00 31 1018.9
20260510212556 61 279 6.0 11.0 0.00 0.00 0.00 30 1018.9
20260510212035 62 264 6.0 12.0 0.00 0.00 0.00 29 1019.0
20260510211536 63 270 4.0 7.0 0.00 0.00 0.00 31 1019.0
20260510211056 61 305 6.0 8.0 0.00 0.00 0.00 29 1018.9
20260510210536 62 247 6.0 14.0 0.00 0.00 0.00 30 1019.0
20260510210036 63 295 5.0 9.0 0.00 0.00 0.00 30 1019.0
20260510205535 64 289 5.0 9.0 0.00 0.00 0.00 29 1019.1
20260510205035 63 268 4.0 8.0 0.00 0.00 0.00 31 1019.0
20260510204538 60 292 6.0 9.0 0.00 0.00 0.00 31 1019.0
20260510204036 60 293 6.0 10.0 0.00 0.00 0.00 29 1019.0
20260510203535 61 274 5.0 10.0 0.00 0.00 0.00 30 1019.0
20260510203035 62 296 4.0 8.0 0.00 0.00 0.00 30 1019.4
20260510202535 61 286 4.0 8.0 0.00 0.00 0.00 31 1019.3
20260510202036 60 266 6.0 10.0 0.00 0.00 0.00 30 1019.3
20260510201556 62 282 7.0 12.0 0.00 0.00 0.00 30 1019.4
20260510201035 61 265 4.0 7.0 0.00 0.00 0.00 29 1019.3
20260510200535 62 275 3.0 8.0 0.00 0.00 0.00 31 1019.4
20260510200058 62 332 5.0 12.0 0.00 0.00 0.00 30 1019.4
20260510195536 63 242 5.0 8.0 0.00 0.00 0.00 29 1019.4
20260510195036 62 301 7.0 12.0 0.00 0.00 0.00 30 1019.4
20260510194535 60 287 5.0 12.0 0.00 0.00 0.00 31 1019.4
20260510194035 60 285 5.0 12.0 0.00 0.00 0.00 30 1019.4
20260510193536 62 272 5.0 11.0 0.00 0.00 0.00 31 1019.4
20260510193056 62 281 7.0 12.0 0.00 0.00 0.00 30 1019.4
20260510192536 62 301 7.0 11.0 0.00 0.00 0.00 31 1019.8
20260510192055 61 279 5.0 11.0 0.00 0.00 0.00 30 1019.7
20260510191535 61 234 6.0 9.0 0.00 0.00 0.00 29 1019.4
20260510191035 62 289 6.0 11.0 0.00 0.00 0.00 30 1019.4
20260510190536 62 283 5.0 12.0 0.00 0.00 0.00 30 1019.4
20260510190036 62 250 7.0 14.0 0.00 0.00 0.00 30 1019.4
20260510185535 62 252 6.0 12.0 0.00 0.00 0.00 30 1019.4
20260510185056 61 320 4.0 8.0 0.00 0.00 0.00 31 1019.4
20260510184556 60 340 6.0 10.0 0.00 0.00 0.00 31 1019.4
20260510184055 61 319 5.0 11.0 0.00 0.00 0.00 32 1019.1
20260510183536 61 316 6.0 10.0 0.00 0.00 0.00 31 1019.0
20260510183036 60 289 6.0 12.0 0.00 0.00 0.00 32 1019.4
20260510182555 59 273 5.0 11.0 0.00 0.00 0.00 33 1019.4
20260510182055 61 237 5.0 10.0 0.00 0.00 0.00 30 1019.0
20260510181536 61 291 5.0 9.0 0.00 0.00 0.00 31 1019.1
20260510181035 61 335 3.0 8.0 0.00 0.00 0.00 34 1019.1
20260510180556 59 319 4.0 9.0 0.00 0.00 0.00 33 1019.0
20260510180035 59 354 7.0 10.0 0.00 0.00 0.00 32 1019.0
20260510175535 61 325 7.0 13.0 0.00 0.00 0.00 32 1019.0
20260510175035 60 312 7.0 11.0 0.00 0.00 0.00 31 1019.0
20260510171035 60 270 5.0 9.0 0.00 0.00 0.00 30 1019.4
20260510170535 59 257 7.0 13.0 0.00 0.00 0.00 31 1019.4
20260510170035 59 289 7.0 12.0 0.00 0.00 0.00 31 1019.4
20260510165535 59 303 4.0 9.0 0.00 0.00 0.00 33 1019.5
20260510165035 59 304 4.0 10.0 0.00 0.00 0.00 32 1019.5
20260510164535 60 355 4.0 8.0 0.00 0.00 0.00 32 1019.5
20260510164035 59 336 5.0 10.0 0.00 0.00 0.00 32 1019.5
20260510163535 58 193 3.0 6.0 0.00 0.00 0.00 31 1019.1
20260510163036 58 303 6.0 11.0 0.00 0.00 0.00 32 1019.1
20260510162536 59 248 3.0 5.0 0.00 0.00 0.00 33 1019.2
20260510162035 59 304 4.0 6.0 0.00 0.00 0.00 34 1019.2
20260510161535 58 328 5.0 13.0 0.00 0.00 0.00 33 1019.2
20260510161035 58 319 7.0 12.0 0.00 0.00 0.00 33 1019.2
20260510160555 58 289 5.0 10.0 0.00 0.00 0.00 32 1019.2
20260510160037 58 324 7.0 13.0 0.00 0.00 0.00 32 1019.2
20260510155536 59 316 4.0 15.0 0.00 0.00 0.00 32 1018.9
20260510155035 59 272 4.0 11.0 0.00 0.00 0.00 34 1018.9
20260510154555 58 282 6.0 10.0 0.00 0.00 0.00 33 1018.9
20260510154036 58 298 6.0 10.0 0.00 0.00 0.00 33 1018.9
20260510153536 58 321 7.0 11.0 0.00 0.00 0.00 34 1018.9
20260510153035 58 283 8.0 13.0 0.00 0.00 0.00 33 1018.9
20260510152555 57 272 5.0 9.0 0.00 0.00 0.00 33 1018.9
20260510152035 57 277 7.0 13.0 0.00 0.00 0.00 33 1018.9
20260510151535 57 311 4.0 7.0 0.00 0.00 0.00 36 1018.9
20260510151036 57 317 4.0 8.0 0.00 0.00 0.00 35 1018.6
20260510150535 57 317 4.0 8.0 0.00 0.00 0.00 36 1018.6
20260510150036 57 333 5.0 8.0 0.00 0.00 0.00 35 1018.6
20260510145535 57 349 6.0 11.0 0.00 0.00 0.00 34 1018.6
20260510145035 57 349 5.0 11.0 0.00 0.00 0.00 33 1018.6
20260510144536 57 336 3.0 9.0 0.00 0.00 0.00 35 1018.6
20260510144035 56 299 4.0 9.0 0.00 0.00 0.00 35 1018.6
20260510143535 56 338 4.0 7.0 0.00 0.00 0.00 36 1018.6
20260510143036 56 258 4.0 6.0 0.00 0.00 0.00 35 1018.6
20260510142535 56 355 4.0 7.0 0.00 0.00 0.00 36 1018.5
20260510142035 55 333 4.0 7.0 0.00 0.00 0.00 37 1018.5
20260510141555 55 338 3.0 7.0 0.00 0.00 0.00 36 1018.5
20260510141035 55 26 3.0 7.0 0.00 0.00 0.00 36 1018.5
20260510140557 55 13 2.0 5.0 0.00 0.00 0.00 35 1018.5
20260510140056 54 345 3.0 6.0 0.00 0.00 0.00 37 1018.5
20260510135616 54 253 2.0 3.0 0.00 0.00 0.00 38 1018.5
20260510135035 55 76 1.0 3.0 0.00 0.00 0.00 38 1018.5
20260510134555 54 199 2.0 7.0 0.00 0.00 0.00 38 1018.5
20260510134036 54 199 1.0 3.0 0.00 0.00 0.00 40 1018.5
20260510133556 54 133 0.0 2.0 0.00 0.00 0.00 40 1018.4
20260510133035 53 345 2.0 4.0 0.00 0.00 0.00 41 1018.1
20260510132535 54 101 1.0 2.0 0.00 0.00 0.00 40 1018.2
20260510132036 54 104 1.0 3.0 0.00 0.00 0.00 40 1018.2
20260510131535 53 97 1.0 3.0 0.00 0.00 0.00 41 1018.2
20260510131035 52 65 1.0 4.0 0.00 0.00 0.00 41 1017.8
20260510130535 52 39 2.0 3.0 0.00 0.00 0.00 42 1017.8
20260510130035 51 15 3.0 6.0 0.00 0.00 0.00 42 1017.8
20260510125535 51 51 2.0 3.0 0.00 0.00 0.00 41 1017.9
20260510125035 51 27 2.0 4.0 0.00 0.00 0.00 42 1017.9
20260510124557 51 29 2.0 4.0 0.00 0.00 0.00 42 1017.9
20260510124035 51 26 2.0 4.0 0.00 0.00 0.00 43 1017.5
20260510123535 50 31 2.0 4.0 0.00 0.00 0.00 43 1017.5
20260510123056 50 20 2.0 4.0 0.00 0.00 0.00 44 1017.5
20260510122536 50 91 1.0 3.0 0.00 0.00 0.00 46 1017.6
20260510122035 49 5 2.0 4.0 0.00 0.00 0.00 47 1017.6
20260510121555 49 6 2.0 3.0 0.00 0.00 0.00 48 1017.6
20260510121035 49 27 2.0 4.0 0.00 0.00 0.00 49 1017.6
20260510120535 49 35 2.0 5.0 0.00 0.00 0.00 50 1017.6
20260510120036 48 11 4.0 6.0 0.00 0.00 0.00 50 1017.2
20260510115535 48 10 2.0 4.0 0.00 0.00 0.00 52 1017.2
20260510115037 48 14 2.0 4.0 0.00 0.00 0.00 54 1017.2
20260510114536 47 57 1.0 3.0 0.00 0.00 0.00 57 1017.2
20260510114035 46 45 1.0 3.0 0.00 0.00 0.00 58 1017.2
20260510113536 45 128 0.0 2.0 0.00 0.00 0.00 60 1016.9
20260510113036 44 120 0.0 1.0 0.00 0.00 0.00 64 1016.5
20260510112535 43 93 1.0 2.0 0.00 0.00 0.00 65 1016.5
20260510112035 43 24 0.0 2.0 0.00 0.00 0.00 66 1016.5
20260510111555 42 123 0.0 1.0 0.00 0.00 0.00 66 1016.5
20260510111035 42 152 0.0 1.0 0.00 0.00 0.00 66 1016.4
20260510110535 42 166 0.0 1.0 0.00 0.00 0.00 66 1016.4
20260510110035 42 155 0.0 1.0 0.00 0.00 0.00 66 1016.1
20260510105535 42 187 0.0 2.0 0.00 0.00 0.00 66 1016.1
20260510105056 42 85 1.0 2.0 0.00 0.00 0.00 66 1016.1
20260510104535 42 95 1.0 2.0 0.00 0.00 0.00 66 1016.1
20260510104035 42 192 0.0 1.0 0.00 0.00 0.00 67 1016.1
20260510103535 42 164 0.0 1.0 0.00 0.00 0.00 66 1015.7
20260510103035 43 82 1.0 2.0 0.00 0.00 0.00 64 1015.8
20260510102535 43 62 1.0 2.0 0.00 0.00 0.00 63 1015.8
20260510102035 43 112 1.0 1.0 0.00 0.00 0.00 63 1015.8
20260510101555 43 125 0.0 1.0 0.00 0.00 0.00 63 1015.8
20260510101035 43 77 0.0 2.0 0.00 0.00 0.00 63 1015.8
20260510100535 43 148 0.0 1.0 0.00 0.00 0.00 63 1015.8
20260510100116 44 133 0.0 2.0 0.00 0.00 0.00 61 1015.9
20260510095535 44 53 1.0 3.0 0.00 0.00 0.00 61 1015.9
20260510095035 44 45 1.0 3.0 0.00 0.00 0.00 61 1015.8
20260510094535 44 51 1.0 2.0 0.00 0.00 0.00 61 1015.5
20260510094035 44 27 1.0 2.0 0.00 0.00 0.00 62 1015.5
20260510093535 44 11 2.0 3.0 0.00 0.00 0.00 63 1015.5
20260510093036 44 2 2.0 4.0 0.00 0.00 0.00 62 1015.5
20260510092535 44 330 1.0 2.0 0.00 0.00 0.00 61 1015.5
20260510092055 45 44 1.0 2.0 0.00 0.00 0.00 59 1015.1
20260510091535 45 62 1.0 2.0 0.00 0.00 0.00 58 1015.1
20260510091035 46 69 1.0 2.0 0.00 0.00 0.00 57 1015.2
20260510090535 46 101 1.0 3.0 0.00 0.00 0.00 57 1014.8
20260510090055 46 5 1.0 2.0 0.00 0.00 0.00 56 1014.9
20260510085535 46 29 2.0 3.0 0.00 0.00 0.00 56 1014.5
20260510085036 47 349 2.0 6.0 0.00 0.00 0.00 56 1014.5
20260510084535 47 355 2.0 5.0 0.00 0.00 0.00 54 1014.5
20260510084035 48 21 3.0 7.0 0.00 0.00 0.00 53 1014.5
20260510083535 47 17 2.0 7.0 0.00 0.00 0.00 54 1014.5
20260510083035 48 35 1.0 3.0 0.00 0.00 0.00 54 1013.8
20260510082536 48 32 2.0 4.0 0.00 0.00 0.00 52 1013.8
20260510082035 48 43 2.0 7.0 0.00 0.00 0.00 53 1013.5
20260510081555 48 357 3.0 7.0 0.00 0.00 0.00 55 1013.5
20260510081036 49 20 2.0 5.0 0.00 0.00 0.00 54 1013.2
20260510080535 49 9 3.0 7.0 0.00 0.00 0.00 54 1013.2
20260510080035 49 7 3.0 5.0 0.00 0.00 0.00 57 1012.9
20260510075535 49 359 4.0 8.0 0.00 0.00 0.00 57 1012.9
20260510075035 49 5 3.0 6.0 0.00 0.00 0.00 57 1012.9
20260510074535 49 39 2.0 4.0 0.00 0.00 0.00 58 1012.9
20260510074036 50 1 2.0 5.0 0.00 0.00 0.00 58 1012.6
20260510073535 50 0 2.0 5.0 0.00 0.00 0.00 57 1012.6
20260510073055 50 35 2.0 4.0 0.00 0.00 0.00 57 1012.6
20260510072535 50 45 2.0 4.0 0.00 0.00 0.00 57 1012.6
20260510072055 50 106 1.0 4.0 0.00 0.00 0.00 58 1012.2
20260510071556 50 21 1.0 2.0 0.00 0.00 0.00 59 1012.2
20260510071035 50 36 1.0 4.0 0.00 0.00 0.00 58 1012.2
20260510070535 51 42 2.0 4.0 0.00 0.00 0.00 57 1012.2
20260510070055 51 22 2.0 5.0 0.00 0.00 0.00 56 1012.2
20260510065535 52 39 2.0 7.0 0.00 0.00 0.00 55 1012.2
20260510065035 51 62 2.0 7.0 0.00 0.00 0.00 57 1012.3
20260510064555 51 40 2.0 5.0 0.00 0.00 0.00 57 1012.3
20260510064035 51 17 3.0 7.0 0.00 0.00 0.00 58 1012.3
20260510063535 51 14 3.0 5.0 0.00 0.00 0.00 59 1012.3
20260510063035 51 22 2.0 3.0 0.00 0.00 0.00 59 1012.3
20260510062535 50 11 2.0 4.0 0.00 0.00 0.00 59 1012.3
20260510062055 50 352 2.0 3.0 0.00 0.00 0.00 61 1012.2
20260510061535 50 19 2.0 3.0 0.00 0.00 0.00 61 1011.9
20260510061035 50 351 2.0 3.0 0.00 0.00 0.00 62 1011.9
20260510060556 50 9 2.0 4.0 0.00 0.00 0.00 62 1011.9
20260510060035 50 352 2.0 3.0 0.00 0.00 0.00 63 1011.9
20260510055535 50 31 1.0 2.0 0.00 0.00 0.00 64 1011.6
20260510055035 50 353 2.0 2.0 0.00 0.00 0.00 62 1011.5
20260510054535 50 347 1.0 2.0 0.00 0.00 0.00 63 1011.5
20260510054035 48 177 0.0 1.0 0.00 0.00 0.00 67 1011.5
20260510053535 49 173 0.0 0.0 0.00 0.00 0.00 68 1011.2
20260510053055 49 178 0.0 1.0 0.00 0.00 0.00 66 1011.2
20260510052535 50 174 0.0 1.0 0.00 0.00 0.00 64 1011.2
20260510052035 50 176 0.0 1.0 0.00 0.00 0.00 66 1011.2
20260510051555 50 170 0.0 0.0 0.00 0.00 0.00 66 1010.8
20260510051035 51 182 0.0 2.0 0.00 0.00 0.00 67 1010.8
20260510050535 51 192 1.0 2.0 0.00 0.00 0.00 65 1010.8
20260510050035 52 180 0.0 1.0 0.00 0.00 0.00 67 1010.9
20260510045535 52 179 0.0 1.0 0.00 0.00 0.00 65 1010.5
20260510045035 53 179 0.0 1.0 0.00 0.00 0.00 62 1010.5
20260510044535 53 194 0.0 1.0 0.00 0.00 0.00 57 1010.5
20260510044055 54 291 0.0 2.0 0.00 0.00 0.00 56 1010.5
20260510043535 54 171 0.0 0.0 0.00 0.00 0.00 54 1010.5
20260510043035 54 144 0.0 1.0 0.00 0.00 0.00 52 1010.5
20260510042535 55 158 0.0 1.0 0.00 0.00 0.00 52 1010.6
20260510042035 55 139 0.0 1.0 0.00 0.00 0.00 53 1010.6
20260510041535 56 74 1.0 2.0 0.00 0.00 0.00 50 1010.2
20260510041035 57 5 1.0 3.0 0.00 0.00 0.00 49 1010.2
20260510040535 57 358 2.0 4.0 0.00 0.00 0.00 49 1010.3
20260510040035 57 9 1.0 4.0 0.00 0.00 0.00 48 1010.3
20260510035535 58 308 2.0 3.0 0.00 0.00 0.00 47 1009.9
20260510035037 58 303 2.0 3.0 0.00 0.00 0.00 46 1009.9
20260510034535 59 351 3.0 5.0 0.00 0.00 0.00 45 1009.9
20260510034035 59 348 3.0 8.0 0.00 0.00 0.00 45 1009.6
20260510033535 59 330 2.0 5.0 0.00 0.00 0.00 45 1009.6
20260510033035 60 327 3.0 7.0 0.00 0.00 0.00 44 1009.6
20260510032535 60 319 5.0 10.0 0.00 0.00 0.00 43 1009.6
20260510032035 60 343 4.0 8.0 0.00 0.00 0.00 43 1009.6
20260510031535 60 338 4.0 8.0 0.00 0.00 0.00 43 1009.2
20260510031035 61 323 4.0 9.0 0.00 0.00 0.00 43 1009.2
20260510030535 61 343 5.0 13.0 0.00 0.00 0.00 43 1009.2
20260510030035 61 354 4.0 9.0 0.00 0.00 0.00 44 1008.9
20260510025536 62 335 6.0 12.0 0.00 0.00 0.00 42 1008.6
20260510025035 62 316 6.0 14.0 0.00 0.00 0.00 42 1008.6
20260510024535 62 341 6.0 14.0 0.00 0.00 0.00 43 1008.2
20260510024035 63 326 5.0 9.0 0.00 0.00 0.00 43 1008.3
20260510023535 63 330 6.0 13.0 0.00 0.00 0.00 44 1008.3
20260510023056 63 325 6.0 13.0 0.00 0.00 0.00 44 1007.9
20260510022535 63 336 6.0 13.0 0.00 0.00 0.00 44 1007.9
20260510022035 64 326 6.0 12.0 0.00 0.00 0.00 44 1007.9
20260510021535 64 333 6.0 11.0 0.00 0.00 0.00 44 1007.9
20260510021035 64 333 6.0 11.0 0.00 0.00 0.00 45 1006.9
20260510020555 64 343 6.0 15.0 0.00 0.00 0.00 46 1006.9
20260510020035 62 304 4.0 8.0 0.00 0.00 0.00 49 1006.9
20260510015535 61 306 3.0 10.0 0.00 0.00 0.00 52 1006.5
20260510015035 59 349 1.0 3.0 0.00 0.00 0.00 56 1006.5
20260510014536 59 139 0.0 2.0 0.00 0.00 0.00 54 1006.4
20260510014035 59 175 0.0 0.0 0.00 0.00 0.00 62 1006.1
20260510013535 60 173 0.0 0.0 0.00 0.00 0.00 66 1006.1
20260510013035 60 173 0.0 0.0 0.00 0.00 0.00 54 1006.1
20260510012616 60 173 0.0 0.0 0.00 0.00 0.00 62 1006.1
20260510012035 61 173 0.0 0.0 0.00 0.00 0.00 55 1005.8
20260510011535 62 174 0.0 0.0 0.00 0.00 0.00 55 1005.8
20260510011035 63 176 0.0 0.0 0.00 0.00 0.00 49 1005.8
20260510010535 63 183 0.0 1.0 0.00 0.00 0.00 46 1005.8
20260510010035 64 183 0.0 2.0 0.00 0.00 0.00 45 1005.8
20260510005535 65 202 1.0 2.0 0.00 0.00 0.00 43 1005.5
20260510005116 66 203 1.0 2.0 0.00 0.00 0.00 43 1005.5
20260510004555 66 213 1.0 3.0 0.00 0.00 0.00 41 1005.4
20260510004035 67 238 3.0 5.0 0.00 0.00 0.00 40 1005.5
20260510003535 67 234 3.0 6.0 0.00 0.00 0.00 40 1005.5
20260510003035 67 243 3.0 6.0 0.00 0.00 0.00 40 1005.5
20260510002535 67 247 3.0 7.0 0.00 0.00 0.00 40 1005.5
20260510002055 68 243 3.0 5.0 0.00 0.00 0.00 39 1005.5
20260510001535 68 265 4.0 7.0 0.00 0.00 0.00 38 1005.2
20260510001035 69 254 6.0 14.0 0.00 0.00 0.00 37 1005.2
20260510000535 69 264 4.0 7.0 0.00 0.00 0.00 37 1005.2
20260510000035 70 270 6.0 12.0 0.00 0.00 0.00 36 1005.2
20260509235535 70 260 6.0 10.0 0.00 0.00 0.00 35 1005.2
20260509235115 70 287 6.0 10.0 0.00 0.00 0.00 34 1004.9
20260509234535 71 264 8.0 16.0 0.00 0.00 0.00 33 1005.2
20260509234036 71 271 7.0 12.0 0.00 0.00 0.00 33 1004.9
20260509233535 71 254 8.0 15.0 0.00 0.00 0.00 32 1004.9
20260509233115 72 255 7.0 14.0 0.00 0.00 0.00 31 1004.9
20260509232555 72 252 7.0 13.0 0.00 0.00 0.00 31 1004.9
20260509232115 72 271 8.0 15.0 0.00 0.00 0.00 30 1004.9
20260509231556 72 281 8.0 16.0 0.00 0.00 0.00 30 1004.9
20260509231035 72 278 8.0 15.0 0.00 0.00 0.00 30 1004.9
20260509230535 72 273 9.0 13.0 0.00 0.00 0.00 29 1004.9
20260509230035 73 279 8.0 16.0 0.00 0.00 0.00 30 1004.9
20260509225535 73 274 8.0 14.0 0.00 0.00 0.00 30 1004.5